User: anonymous   Login
Location: Asheville, NC
(35.6000°N, 82.5500°W)
Time: 02:38:05
(UTC-04:00)
Language:

AO-73 - Orbit

View from above orbital plane
View from above orbital plane
View from above satellite
View from above satellite

Ground track
Ground track

The orbit data is extracted from the following two-line orbital elements,

1 39444U 13066AE  18198.63164952  .00000220  00000-0  33410-4 0  9992
2 39444  97.5860 227.2055 0059455  51.8000 308.8547 14.81739797250161
Epoch (UTC): 17 July 2018 15:09:34
Eccentricity: 0.0059455
inclination: 97.5860°
perigee height: 582 km
apogee height: 665 km
right ascension of ascending node: 227.2055°
argument of perigee: 51.8000°
revolutions per day: 14.81739797
mean anomaly at epoch: 308.8547°
orbit number at epoch: 25016

The dashed part of the orbit path shows where the satellite is in the earth's shadow,  

DLR